Weather History for KVIS - May, 2013

Change the Weather History Date:

Sunday, May 26, 2013

  Actual Average Record
Temperature  
Mean Temperature 66 °F -  
Max Temperature 80 °F 85 °F 102 °F (1951)
Min Temperature 53 °F 57 °F 42 °F (1953)
Cooling Degree Days 2    
Growing Degree Days 16 (Base 50)    
Moisture  
Dew Point 44 °F    
Average Humidity 43    
Maximum Humidity 63    
Minimum Humidity 28    
Precipitation  
Precipitation 0.00 in - - ()
Sea Level Pressure  
Sea Level Pressure 30.03 in    
Wind  
Wind Speed 10 mph (NW)    
Max Wind Speed 17 mph    
Max Gust Speed 20 mph    
Visibility 10 miles    
Events      
Averages and records for this station are not official NWS values.
T = Trace of Precipitation, MM = Missing Value Source: NWS Daily Summary

Daily Weather History Graph

Daily Weather History Graph

Search for Another Location

Airport or City:

Trip Planner

Search our weather history database for the weather conditions in past years. The results will help you decide how hot, cold, wet, or windy it might be!

Date:

Astronomy

May. 26, 2013 Rise Set
Actual Time 5:43 AM PDT 8:05 PM PDT
Civil Twilight 5:14 AM PDT 8:35 PM PDT
Nautical Twilight 4:37 AM PDT 9:11 PM PDT
Astronomical Twilight 3:58 AM PDT 9:51 PM PDT
Moon 9:59 PM PDT (5/26) 7:17 AM PDT (5/26)
Length of Visible Light 15h 21m
Length of Day
14h 22m
Waning Gibbous, 96% of the Moon is Illuminated
May 26
Waning Gibbous
May 31
Last Quarter
Jun 8
New
Jun 16
First Quarter
Jun 23
Full

Hourly Weather History & Observations

Time (PDT) Temp. Dew Point Humidity Pressure Visibility Wind Dir Wind Speed Gust Speed Precip Events Conditions
12:15 AM 62.6 °F 39.2 °F 42% 29.98 in 10.0 mi NNW 11.5 mph - N/A   Unknown
12:35 AM 62.6 °F 39.2 °F 42% 29.99 in 10.0 mi NNW 12.7 mph - N/A   Unknown
12:55 AM 62.6 °F 39.2 °F 42% 29.99 in 10.0 mi NW 13.8 mph - N/A   Unknown
1:15 AM 62.6 °F 37.4 °F 39% 29.99 in 10.0 mi NNW 16.1 mph - N/A   Unknown
1:35 AM 60.8 °F 37.4 °F 42% 29.99 in 10.0 mi NNW 13.8 mph - N/A   Unknown
1:55 AM 60.8 °F 37.4 °F 42% 30.00 in 10.0 mi NNW 10.4 mph - N/A   Unknown
2:15 AM 59.0 °F 37.4 °F 45% 30.00 in 10.0 mi NW 9.2 mph - N/A   Unknown
2:35 AM 59.0 °F 37.4 °F 45% 30.00 in 10.0 mi NNW 6.9 mph - N/A   Unknown
2:55 AM 57.2 °F 37.4 °F 48% 30.00 in 10.0 mi NNW 8.1 mph - N/A   Unknown
3:15 AM 57.2 °F 37.4 °F 48% 30.00 in 10.0 mi NNW 6.9 mph - N/A   Unknown
3:35 AM 57.2 °F 37.4 °F 48% 30.00 in 10.0 mi NNW 8.1 mph - N/A   Unknown
3:55 AM 55.4 °F 37.4 °F 51% 30.01 in 10.0 mi NNW 6.9 mph - N/A   Unknown
4:15 AM 55.4 °F 39.2 °F 54% 30.00 in 10.0 mi NNW 6.9 mph - N/A   Unknown
4:35 AM 55.4 °F 39.2 °F 54% 30.01 in 10.0 mi NNW 8.1 mph - N/A   Unknown
4:55 AM 55.4 °F 39.2 °F 54% 30.01 in 10.0 mi NW 10.4 mph - N/A   Unknown
5:15 AM 55.4 °F 39.2 °F 54% 30.01 in 10.0 mi NW 10.4 mph - N/A   Unknown
5:35 AM 55.4 °F 41.0 °F 58% 30.02 in 10.0 mi NNW 9.2 mph - N/A   Unknown
5:55 AM 53.6 °F 41.0 °F 62% 30.03 in 10.0 mi NNW 9.2 mph - N/A   Unknown
6:15 AM 53.6 °F 41.0 °F 62% 30.04 in 10.0 mi NNW 8.1 mph - N/A   Unknown
6:35 AM 55.4 °F 41.0 °F 58% 30.04 in 10.0 mi North 5.8 mph - N/A   Unknown
6:55 AM 55.4 °F 42.8 °F 63% 30.05 in 10.0 mi NNW 5.8 mph - N/A   Unknown
7:15 AM 55.4 °F 42.8 °F 63% 30.05 in 10.0 mi NNW 6.9 mph - N/A   Unknown
7:35 AM 57.2 °F 42.8 °F 59% 30.05 in 10.0 mi NNW 9.2 mph - N/A   Unknown
7:55 AM 59.0 °F 42.8 °F 55% 30.06 in 10.0 mi NNW 6.9 mph - N/A   Unknown
8:15 AM 60.8 °F 42.8 °F 52% 30.07 in 10.0 mi NNW 9.2 mph - N/A   Unknown
8:35 AM 62.6 °F 42.8 °F 48% 30.07 in 10.0 mi NNW 11.5 mph - N/A   Unknown
8:55 AM 62.6 °F 44.6 °F 52% 30.08 in 10.0 mi North 8.1 mph - N/A   Unknown
9:15 AM 62.6 °F 44.6 °F 52% 30.08 in 10.0 mi NW 3.5 mph - N/A   Unknown
9:35 AM 64.4 °F 44.6 °F 49% 30.08 in 10.0 mi NNW 6.9 mph - N/A   Unknown
9:55 AM 66.2 °F 44.6 °F 46% 30.08 in 10.0 mi West 4.6 mph - N/A   Unknown
10:15 AM 68.0 °F 46.4 °F 46% 30.08 in 10.0 mi NNW 9.2 mph - N/A   Unknown
10:35 AM 69.8 °F 46.4 °F 43% 30.08 in 10.0 mi NNW 11.5 mph - N/A   Unknown
10:55 AM 71.6 °F 46.4 °F 41% 30.07 in 10.0 mi NNE 9.2 mph - N/A   Unknown
11:15 AM 71.6 °F 46.4 °F 41% 30.08 in 10.0 mi NW 9.2 mph - N/A   Unknown
11:35 AM 71.6 °F 46.4 °F 41% 30.07 in 10.0 mi NNW 8.1 mph - N/A   Unknown
11:55 AM 73.4 °F 46.4 °F 38% 30.07 in 10.0 mi North 5.8 mph 16.1 mph N/A   Unknown
12:15 PM 73.4 °F 46.4 °F 38% 30.07 in 10.0 mi West 10.4 mph - N/A   Unknown
12:35 PM 75.2 °F 46.4 °F 36% 30.06 in 10.0 mi NW 8.1 mph - N/A   Unknown
12:55 PM 75.2 °F 48.2 °F 38% 30.06 in 10.0 mi WNW 10.4 mph 18.4 mph N/A   Unknown
1:15 PM 77.0 °F 48.2 °F 36% 30.06 in 10.0 mi NNW 6.9 mph - N/A   Unknown
1:35 PM 75.2 °F 48.2 °F 38% 30.05 in 10.0 mi West 5.8 mph - N/A   Unknown
1:55 PM 78.8 °F 48.2 °F 34% 30.04 in 10.0 mi NW 11.5 mph - N/A   Unknown
2:15 PM 77.0 °F 48.2 °F 36% 30.03 in 10.0 mi NW 9.2 mph - N/A   Unknown
2:35 PM 78.8 °F 48.2 °F 34% 30.03 in 10.0 mi NW 10.4 mph 18.4 mph N/A   Unknown
2:55 PM 80.6 °F 48.2 °F 32% 30.03 in 10.0 mi WNW 12.7 mph 17.3 mph N/A   Unknown
3:15 PM 80.6 °F 48.2 °F 32% 30.02 in 10.0 mi NW 12.7 mph 17.3 mph N/A   Unknown
3:35 PM 80.6 °F 48.2 °F 32% 30.02 in 10.0 mi NW 10.4 mph - N/A   Unknown
3:55 PM 80.6 °F 46.4 °F 30% 30.01 in 10.0 mi NW 10.4 mph 17.3 mph N/A   Unknown
4:15 PM 80.6 °F 46.4 °F 30% 30.00 in 10.0 mi NW 13.8 mph 18.4 mph N/A   Unknown
4:35 PM 80.6 °F 46.4 °F 30% 30.00 in 10.0 mi NW 9.2 mph 16.1 mph N/A   Unknown
4:55 PM 80.6 °F 46.4 °F 30% 30.00 in 10.0 mi NNW 15.0 mph 19.6 mph N/A   Unknown
5:15 PM 80.6 °F 44.6 °F 28% 29.99 in 10.0 mi NNW 12.7 mph - N/A   Unknown
5:35 PM 80.6 °F 46.4 °F 30% 29.99 in 10.0 mi NW 12.7 mph - N/A   Unknown
5:55 PM 80.6 °F 46.4 °F 30% 29.99 in 10.0 mi NW 13.8 mph 19.6 mph N/A   Unknown
6:15 PM 80.6 °F 46.4 °F 30% 29.99 in 10.0 mi NW 17.3 mph - N/A   Unknown
6:35 PM 78.8 °F 46.4 °F 32% 29.99 in 10.0 mi NNW 11.5 mph - N/A   Unknown
6:55 PM 77.0 °F 44.6 °F 32% 29.99 in 10.0 mi NNW 11.5 mph - N/A   Unknown
7:15 PM 77.0 °F 44.6 °F 32% 29.99 in 10.0 mi NNW 11.5 mph - N/A   Unknown
7:35 PM 75.2 °F 46.4 °F 36% 29.99 in 10.0 mi NNW 9.2 mph - N/A   Unknown
7:55 PM 75.2 °F 44.6 °F 34% 29.99 in 10.0 mi WNW 6.9 mph - N/A   Unknown
8:15 PM 73.4 °F 46.4 °F 38% 30.00 in 10.0 mi NW 6.9 mph - N/A   Unknown
8:35 PM 71.6 °F 46.4 °F 41% 30.00 in 10.0 mi NW 6.9 mph - N/A   Unknown
8:55 PM 71.6 °F 46.4 °F 41% 30.00 in 10.0 mi NW 6.9 mph - N/A   Unknown
9:15 PM 71.6 °F 46.4 °F 41% 30.01 in 10.0 mi NW 10.4 mph - N/A   Unknown
9:35 PM 71.6 °F 46.4 °F 41% 30.02 in 10.0 mi NW 9.2 mph - N/A   Unknown
9:55 PM 69.8 °F 46.4 °F 43% 30.03 in 10.0 mi WNW 6.9 mph - N/A   Unknown
10:15 PM 68.0 °F 46.4 °F 46% 30.03 in 10.0 mi NW 8.1 mph - N/A   Unknown
10:35 PM 66.2 °F 46.4 °F 49% 30.04 in 10.0 mi NW 9.2 mph - N/A   Unknown
10:55 PM 66.2 °F 46.4 °F 49% 30.05 in 10.0 mi NW 10.4 mph - N/A   Unknown
11:15 PM 64.4 °F 46.4 °F 52% 30.05 in 10.0 mi NW 9.2 mph - N/A   Unknown
11:35 PM 64.4 °F 46.4 °F 52% 30.05 in 10.0 mi WNW 10.4 mph - N/A   Unknown
11:55 PM 62.6 °F 46.4 °F 55% 30.05 in 10.0 mi NW 9.2 mph - N/A   Unknown